Weather History for Roosevelt Roads, PR

Change the Weather History Date:

Sunday, March 23, 2014

  Actual Average Record
Temperature  
Mean Temperature 79 °F -  
Max Temperature 86 °F 80 °F 86 °F (2007)
Min Temperature 72 °F 70 °F 66 °F (1997)
Cooling Degree Days 14    
Growing Degree Days 29 (Base 50)    
Moisture  
Dew Point 71 °F    
Average Humidity 73    
Maximum Humidity 93    
Minimum Humidity 61    
Precipitation  
Precipitation 0.00 in - - ()
Sea Level Pressure  
Sea Level Pressure 30.07 in    
Wind  
Wind Speed 7 mph (South)    
Max Wind Speed 13 mph    
Max Gust Speed 18 mph    
Visibility 10 miles    
Events      
Averages and records for this station are not official NWS values.
T = Trace of Precipitation, MM = Missing Value Source: NWS Daily Summary

Daily Weather History Graph

Daily Weather History Graph

Search for Another Location

Airport:

Trip Planner

Search our weather history database for the weather conditions in past years. The results will help you decide how hot, cold, wet, or windy it might be!

Date:

Astronomy

Mar. 23, 2014 Rise Set
Actual Time 6:24 AM AST 6:34 PM AST
Civil Twilight 6:02 AM AST 6:55 PM AST
Nautical Twilight 5:37 AM AST 7:21 PM AST
Astronomical Twilight 5:11 AM AST 7:46 PM AST
Moon 12:07 AM AST (3/23) 11:41 AM AST (3/23)
Length of Visible Light 12h 53m
Length of Day
12h 09m
Waning Gibbous, 55% of the Moon is Illuminated
Mar 23
Waning Gibbous
Mar 23
Last Quarter
Mar 30
New
Apr 7
First Quarter
Apr 15
Full

Hourly Weather History & Observations

Time (AST) Temp. Heat Index Dew Point Humidity Pressure Visibility Wind Dir Wind Speed Gust Speed Precip Events Conditions
12:53 AM 75.9 °F - 71.1 °F 85% 30.11 in 10.0 mi SE 3.5 mph - N/A   Scattered Clouds
1:53 AM 75.9 °F - 71.1 °F 85% 30.09 in 10.0 mi SSE 4.6 mph - N/A   Clear
2:53 AM 75.9 °F - 71.1 °F 85% 30.07 in 10.0 mi Calm Calm - N/A   Clear
3:53 AM 72.0 °F - 70.0 °F 93% 30.07 in 10.0 mi Calm Calm - N/A   Clear
4:53 AM 77.0 °F - 72.0 °F 84% 30.08 in 10.0 mi SE 5.8 mph - N/A   Mostly Cloudy
5:53 AM 75.9 °F - 71.1 °F 85% 30.09 in 10.0 mi SSE 4.6 mph - N/A   Clear
6:53 AM 77.0 °F - 71.1 °F 82% 30.10 in 10.0 mi SE 6.9 mph - N/A   Mostly Cloudy
7:04 AM 78.8 °F - 71.6 °F 78% 30.09 in 10.0 mi SE 10.4 mph - N/A   Scattered Clouds
7:53 AM 80.1 °F 83.6 °F 71.1 °F 74% 30.11 in 10.0 mi SE 11.5 mph - N/A   Clear
8:53 AM 82.0 °F 85.9 °F 70.0 °F 67% 30.13 in 10.0 mi SE 12.7 mph - N/A   Partly Cloudy
9:27 AM 82.4 °F 86.3 °F 69.8 °F 66% 30.12 in 10.0 mi ESE 12.7 mph - N/A   Mostly Cloudy
9:40 AM 82.4 °F 86.3 °F 69.8 °F 66% 30.12 in 10.0 mi SE 11.5 mph - N/A   Scattered Clouds
9:53 AM 82.9 °F 87.0 °F 70.0 °F 65% 30.13 in 10.0 mi SE 11.5 mph - N/A   Scattered Clouds
10:12 AM 84.2 °F 89.6 °F 71.6 °F 66% 30.12 in 10.0 mi SSE 12.7 mph - N/A   Mostly Cloudy
10:28 AM 82.4 °F 86.3 °F 69.8 °F 66% 30.12 in 10.0 mi ESE 12.7 mph - N/A   Mostly Cloudy
10:53 AM 82.9 °F 87.0 °F 70.0 °F 65% 30.12 in 10.0 mi ESE 10.4 mph - N/A   Mostly Cloudy
11:53 AM 84.9 °F 90.1 °F 71.1 °F 63% 30.10 in 10.0 mi ESE 10.4 mph 16.1 mph N/A   Mostly Cloudy
12:53 PM 84.0 °F 87.8 °F 69.1 °F 61% 30.08 in 10.0 mi South 12.7 mph - N/A   Mostly Cloudy
1:53 PM 86.0 °F 91.5 °F 71.1 °F 61% 30.05 in 10.0 mi South 11.5 mph 18.4 mph N/A   Mostly Cloudy
2:53 PM 84.9 °F 90.1 °F 71.1 °F 63% 30.03 in 10.0 mi South 11.5 mph - N/A   Mostly Cloudy
3:09 PM 84.2 °F 89.6 °F 71.6 °F 66% 30.02 in 10.0 mi SSE 8.1 mph - N/A   Mostly Cloudy
3:20 PM 84.2 °F 89.6 °F 71.6 °F 66% 30.02 in 10.0 mi South 10.4 mph - N/A   Mostly Cloudy
3:53 PM 82.9 °F 87.0 °F 70.0 °F 65% 30.02 in 10.0 mi South 9.2 mph - N/A   Mostly Cloudy
4:53 PM 82.9 °F 87.0 °F 70.0 °F 65% 30.02 in 10.0 mi South 9.2 mph - N/A   Partly Cloudy
5:53 PM 81.0 °F 84.4 °F 70.0 °F 69% 30.03 in 10.0 mi South 6.9 mph - N/A   Clear
6:53 PM 80.1 °F 83.2 °F 70.0 °F 71% 30.03 in 10.0 mi SSW 6.9 mph - N/A   Clear
7:29 PM 80.6 °F 84.6 °F 71.6 °F 74% 30.04 in 10.0 mi SSW 6.9 mph - N/A   Overcast
7:49 PM 78.8 °F - 71.6 °F 78% 30.04 in 10.0 mi SSW 5.8 mph - N/A   Mostly Cloudy
7:53 PM 79.0 °F - 70.0 °F 74% 30.04 in 10.0 mi SSW 4.6 mph - N/A   Scattered Clouds
8:40 PM 78.8 °F - 69.8 °F 74% 30.05 in 10.0 mi WSW 4.6 mph - N/A   Mostly Cloudy
8:53 PM 78.1 °F - 70.0 °F 76% 30.06 in 10.0 mi WSW 3.5 mph - N/A   Mostly Cloudy
9:09 PM 77.0 °F - 69.8 °F 78% 30.06 in 10.0 mi SW 3.5 mph - N/A   Scattered Clouds
9:53 PM 75.9 °F - 70.0 °F 82% 30.08 in 10.0 mi WSW 3.5 mph - N/A   Clear
10:53 PM 75.0 °F - 70.0 °F 84% 30.07 in 10.0 mi SW 3.5 mph - N/A   Clear
11:53 PM 73.0 °F - 69.1 °F 87% 30.07 in 10.0 mi Calm Calm - N/A   Scattered Clouds